| time (UTC) | temp F | wind direction | speed MPH | gust MPH | rain 1hr in | rain 24hr in | rain mn in | humidity % | barometer mb |
| 20260505173018 | 46 | 158 | 2.0 | 7.0 | 0.00 | 0.00 | 0.00 | 78 | 1028.8 |
| 20260505170019 | 44 | 0.0 | 5.0 | 0.00 | 0.00 | 0.00 | 77 | 1029.4 | |
| 20260505163018 | 43 | 0.0 | 0.0 | 0.00 | 0.00 | 0.00 | 75 | 1029.2 | |
| 20260505153017 | 41 | 0.0 | 0.0 | 0.00 | 0.00 | 0.00 | 84 | 1029.7 | |
| 20260505123020 | 43 | 0.0 | 3.0 | 0.00 | 0.03 | 0.01 | 87 | 1029.9 | |
| 20260505113018 | 43 | 0.0 | 2.0 | 0.00 | 0.06 | 0.01 | 90 | 1029.9 | |
| 20260505100018 | 45 | 0.0 | 4.0 | 0.00 | 0.12 | 0.01 | 91 | 1029.7 | |
| 20260505093018 | 45 | 0.0 | 2.0 | 0.00 | 0.15 | 0.01 | 91 | 1029.3 | |
| 20260505090018 | 46 | 0.0 | 4.0 | 0.00 | 0.19 | 0.01 | 90 | 1029.0 | |
| 20260505083018 | 46 | 158 | 1.0 | 4.0 | 0.00 | 0.23 | 0.01 | 89 | 1028.6 |
| 20260505080019 | 47 | 0.0 | 3.0 | 0.00 | 0.27 | 0.01 | 87 | 1028.4 | |
| 20260505073017 | 48 | 270 | 1.0 | 6.0 | 0.00 | 0.31 | 0.01 | 83 | 1028.1 |
| 20260505070019 | 49 | 270 | 1.0 | 5.0 | 0.00 | 0.37 | 0.01 | 80 | 1027.9 |
| 20260505063018 | 51 | 0.0 | 7.0 | 0.00 | 0.39 | 0.01 | 74 | 1028.0 | |
| 20260505060017 | 51 | 270 | 1.0 | 6.0 | 0.00 | 0.41 | 0.01 | 75 | 1027.9 |
| 20260505053018 | 52 | 270 | 2.0 | 6.0 | 0.00 | 0.41 | 0.01 | 74 | 1028.1 |
| 20260505040019 | 57 | 293 | 1.0 | 5.0 | 0.00 | 0.41 | 0.01 | 64 | 1028.4 |
| 20260505033017 | 58 | 113 | 1.0 | 5.0 | 0.00 | 0.41 | 0.01 | 63 | 1028.5 |
| 20260505030017 | 57 | 293 | 2.0 | 6.0 | 0.00 | 0.41 | 0.01 | 65 | 1028.7 |
| 20260505023036 | 57 | 315 | 2.0 | 7.0 | 0.00 | 0.41 | 0.01 | 64 | 1029.0 |
| 20260505020017 | 56 | 270 | 2.0 | 7.0 | 0.00 | 0.41 | 0.01 | 72 | 1029.6 |
| 20260505013016 | 55 | 270 | 2.0 | 8.0 | 0.00 | 0.41 | 0.01 | 72 | 1030.0 |
| 20260505010019 | 53 | 270 | 2.0 | 8.0 | 0.00 | 0.42 | 0.01 | 76 | 1029.6 |
| 20260505003017 | 53 | 270 | 2.0 | 7.0 | 0.00 | 0.44 | 0.01 | 78 | 1029.6 |
| 20260505000017 | 52 | 270 | 2.0 | 7.0 | 0.00 | 0.46 | 0.01 | 80 | 1028.9 |
| 20260504233016 | 51 | 270 | 2.0 | 6.0 | 0.00 | 0.50 | 0.01 | 84 | 1028.7 |
| 20260504230017 | 50 | 270 | 2.0 | 9.0 | 0.00 | 0.54 | 0.01 | 85 | 1028.2 |
| 20260504223057 | 49 | 270 | 2.0 | 8.0 | 0.00 | 0.60 | 0.01 | 87 | 1027.8 |
| 20260504220038 | 47 | 270 | 1.0 | 7.0 | 0.00 | 0.65 | 0.01 | 91 | 1027.1 |
| 20260504213016 | 45 | 270 | 1.0 | 8.0 | 0.00 | 0.70 | 0.01 | 92 | 1026.7 |
| 20260504210016 | 44 | 270 | 1.0 | 13.0 | 0.00 | 0.75 | 0.01 | 91 | 1026.6 |
| 20260504203019 | 44 | 158 | 1.0 | 11.0 | 0.00 | 0.82 | 0.01 | 90 | 1026.4 |
| 20260504200039 | 44 | 248 | 1.0 | 7.0 | 0.00 | 0.90 | 0.01 | 89 | 1026.3 |
| 20260504193018 | 43 | 0.0 | 7.0 | 0.00 | 0.97 | 0.01 | 89 | 1025.9 | |
| 20260504190018 | 44 | 0.0 | 7.0 | 0.00 | 1.03 | 0.01 | 88 | 1025.9 | |
| 20260504183018 | 43 | 0.0 | 3.0 | 0.00 | 1.07 | 0.01 | 88 | 1026.0 | |
| 20260504180018 | 44 | 0.0 | 6.0 | 0.00 | 1.11 | 0.01 | 88 | 1026.0 |